Year,Month,Day,Hour,Minute,Value (Times are PST for temperature in C)
2011,06,17,00,00,10.60
2011,06,17,00,01,10.60
2011,06,17,00,02,10.60
2011,06,17,00,03,10.60
2011,06,17,00,04,10.60
2011,06,17,00,05,10.60
2011,06,17,00,06,10.60
2011,06,17,00,07,10.60
2011,06,17,00,08,10.60
2011,06,17,00,09,10.60
2011,06,17,00,10,10.60
2011,06,17,00,11,10.60
2011,06,17,00,12,10.50
2011,06,17,00,13,10.50
2011,06,17,00,14,10.50
2011,06,17,00,15,10.50
2011,06,17,00,16,10.50
2011,06,17,00,17,10.50
2011,06,17,00,18,10.50
2011,06,17,00,19,10.50
2011,06,17,00,20,10.50
2011,06,17,00,21,10.50
2011,06,17,00,22,10.50
2011,06,17,00,23,10.60
2011,06,17,00,24,10.60
2011,06,17,00,25,10.70
2011,06,17,00,26,10.70
2011,06,17,00,27,10.80
2011,06,17,00,28,10.80
2011,06,17,00,29,10.80
2011,06,17,00,30,10.80
2011,06,17,00,31,10.70
2011,06,17,00,32,10.70
2011,06,17,00,33,10.70
2011,06,17,00,34,10.70
2011,06,17,00,35,10.60
2011,06,17,00,36,10.60
2011,06,17,00,37,10.60
2011,06,17,00,38,10.60
2011,06,17,00,39,10.60
2011,06,17,00,40,10.50
2011,06,17,00,41,10.50
2011,06,17,00,42,10.50
2011,06,17,00,43,10.40
2011,06,17,00,44,10.40
2011,06,17,00,45,10.40
2011,06,17,00,46,10.40
2011,06,17,00,47,10.40
2011,06,17,00,48,10.40
2011,06,17,00,49,10.30
2011,06,17,00,50,10.30
2011,06,17,00,51,10.30
2011,06,17,00,52,10.30
2011,06,17,00,53,10.30
2011,06,17,00,54,10.30
2011,06,17,00,55,10.30
2011,06,17,00,56,10.30
2011,06,17,00,57,10.20
2011,06,17,00,58,10.20
2011,06,17,00,59,10.20
2011,06,17,01,00,10.20
2011,06,17,01,01,10.20
2011,06,17,01,02,10.20
2011,06,17,01,03,10.20
2011,06,17,01,04,10.10
2011,06,17,01,05,10.10
2011,06,17,01,06,10.10
2011,06,17,01,07,10.10
2011,06,17,01,08,10.10
2011,06,17,01,09,10.10
2011,06,17,01,10,10.10
2011,06,17,01,11,10.00
2011,06,17,01,12,10.00
2011,06,17,01,13,9.90
2011,06,17,01,14,9.90
2011,06,17,01,15,9.90
2011,06,17,01,16,9.80
2011,06,17,01,17,9.80
2011,06,17,01,18,9.80
2011,06,17,01,19,9.80
2011,06,17,01,20,9.70
2011,06,17,01,21,9.70
2011,06,17,01,22,9.70
2011,06,17,01,23,9.70
2011,06,17,01,24,9.70
2011,06,17,01,25,9.70
2011,06,17,01,26,9.70
2011,06,17,01,27,9.70
2011,06,17,01,28,9.70
2011,06,17,01,29,9.70
2011,06,17,01,30,9.70
2011,06,17,01,31,9.70
2011,06,17,01,32,9.70
2011,06,17,01,33,9.70
2011,06,17,01,34,9.70
2011,06,17,01,35,9.70
2011,06,17,01,36,9.60
2011,06,17,01,37,9.60
2011,06,17,01,38,9.60
2011,06,17,01,39,9.50
2011,06,17,01,40,9.50
2011,06,17,01,41,9.50
2011,06,17,01,42,9.50
2011,06,17,01,43,9.50
2011,06,17,01,44,9.50
2011,06,17,01,45,9.50
2011,06,17,01,46,9.50
2011,06,17,01,47,9.40
2011,06,17,01,48,9.40
2011,06,17,01,49,9.40
2011,06,17,01,50,9.40
2011,06,17,01,51,9.40
2011,06,17,01,52,9.40
2011,06,17,01,53,9.40
2011,06,17,01,54,9.40
2011,06,17,01,55,9.40
2011,06,17,01,56,9.40
2011,06,17,01,57,9.40
2011,06,17,01,58,9.40
2011,06,17,01,59,9.40
2011,06,17,02,00,9.30
2011,06,17,02,01,9.30
2011,06,17,02,02,9.30
2011,06,17,02,03,9.30
2011,06,17,02,04,9.30
2011,06,17,02,05,9.20
2011,06,17,02,06,9.20
2011,06,17,02,07,9.20
2011,06,17,02,08,9.20
2011,06,17,02,09,9.20
2011,06,17,02,10,9.10
2011,06,17,02,11,9.10
2011,06,17,02,12,9.10
2011,06,17,02,13,9.10
2011,06,17,02,14,9.00
2011,06,17,02,15,9.00
2011,06,17,02,16,9.00
2011,06,17,02,17,9.00
2011,06,17,02,18,8.90
2011,06,17,02,19,8.90
2011,06,17,02,20,8.90
2011,06,17,02,21,8.90
2011,06,17,02,22,8.90
2011,06,17,02,23,8.90
2011,06,17,02,24,8.90
2011,06,17,02,25,8.90
2011,06,17,02,26,8.90
2011,06,17,02,27,8.90
2011,06,17,02,28,8.90
2011,06,17,02,29,8.90
2011,06,17,02,30,8.90
2011,06,17,02,31,8.90
2011,06,17,02,32,8.80
2011,06,17,02,33,8.80
2011,06,17,02,34,8.80
2011,06,17,02,35,8.80
2011,06,17,02,36,8.80
2011,06,17,02,37,8.80
2011,06,17,02,38,8.80
2011,06,17,02,39,8.70
2011,06,17,02,40,8.70
2011,06,17,02,41,8.70
2011,06,17,02,42,8.70
2011,06,17,02,43,8.60
2011,06,17,02,44,8.60
2011,06,17,02,45,8.60
2011,06,17,02,46,8.50
2011,06,17,02,47,8.50
2011,06,17,02,48,8.50
2011,06,17,02,49,8.40
2011,06,17,02,50,8.40
2011,06,17,02,51,8.40
2011,06,17,02,52,8.40
2011,06,17,02,53,8.40
2011,06,17,02,54,8.40
2011,06,17,02,55,8.40
2011,06,17,02,56,8.40
2011,06,17,02,57,8.40
2011,06,17,02,58,8.30
2011,06,17,02,59,8.30
2011,06,17,03,00,8.30
2011,06,17,03,01,8.30
2011,06,17,03,02,8.30
2011,06,17,03,03,8.30
2011,06,17,03,04,8.30
2011,06,17,03,05,8.30
2011,06,17,03,06,8.30
2011,06,17,03,07,8.30
2011,06,17,03,08,8.30
2011,06,17,03,09,8.30
2011,06,17,03,10,8.30
2011,06,17,03,11,8.20
2011,06,17,03,12,8.20
2011,06,17,03,13,8.20
2011,06,17,03,14,8.20
2011,06,17,03,15,8.20
2011,06,17,03,16,8.20
2011,06,17,03,17,8.20
2011,06,17,03,18,8.20
2011,06,17,03,19,8.20
2011,06,17,03,20,8.20
2011,06,17,03,21,8.20
2011,06,17,03,22,8.20
2011,06,17,03,23,8.20
2011,06,17,03,24,8.20
2011,06,17,03,25,8.20
2011,06,17,03,26,8.20
2011,06,17,03,27,8.20
2011,06,17,03,28,8.20
2011,06,17,03,29,8.20
2011,06,17,03,30,8.20
2011,06,17,03,31,8.20
2011,06,17,03,32,8.10
2011,06,17,03,33,8.10
2011,06,17,03,34,8.10
2011,06,17,03,35,8.10
2011,06,17,03,36,8.10
2011,06,17,03,37,8.10
2011,06,17,03,38,8.10
2011,06,17,03,39,8.10
2011,06,17,03,40,8.10
2011,06,17,03,41,8.10
2011,06,17,03,42,8.10
2011,06,17,03,43,8.10
2011,06,17,03,44,8.10
2011,06,17,03,45,8.00
2011,06,17,03,46,8.00
2011,06,17,03,47,8.00
2011,06,17,03,48,8.00
2011,06,17,03,49,8.00
2011,06,17,03,50,8.00
2011,06,17,03,51,7.90
2011,06,17,03,52,8.00
2011,06,17,03,53,8.00
2011,06,17,03,54,7.90
2011,06,17,03,55,7.90
2011,06,17,03,56,7.90
2011,06,17,03,57,7.90
2011,06,17,03,58,7.90
2011,06,17,03,59,7.90
2011,06,17,04,00,7.90
2011,06,17,04,01,7.90
2011,06,17,04,02,7.80
2011,06,17,04,03,7.80
2011,06,17,04,04,7.80
2011,06,17,04,05,7.80
2011,06,17,04,06,7.80
2011,06,17,04,07,7.80
2011,06,17,04,08,7.80
2011,06,17,04,09,7.80
2011,06,17,04,10,7.80
2011,06,17,04,11,7.80
2011,06,17,04,12,7.80
2011,06,17,04,13,7.80
2011,06,17,04,14,7.80
2011,06,17,04,15,7.70
2011,06,17,04,16,7.70
2011,06,17,04,17,7.70
2011,06,17,04,18,7.70
2011,06,17,04,19,7.70
2011,06,17,04,20,7.70
2011,06,17,04,21,7.70
2011,06,17,04,22,7.60
2011,06,17,04,23,7.60
2011,06,17,04,24,7.60
2011,06,17,04,25,7.60
2011,06,17,04,26,7.60
2011,06,17,04,27,7.60
2011,06,17,04,28,7.60
2011,06,17,04,29,7.60
2011,06,17,04,30,7.60
2011,06,17,04,31,7.60
2011,06,17,04,32,7.60
2011,06,17,04,33,7.60
2011,06,17,04,34,7.60
2011,06,17,04,35,7.60
2011,06,17,04,36,7.50
2011,06,17,04,37,7.50
2011,06,17,04,38,7.50
2011,06,17,04,39,7.50
2011,06,17,04,40,7.40
2011,06,17,04,41,7.40
2011,06,17,04,42,7.40
2011,06,17,04,43,7.40
2011,06,17,04,44,7.40
2011,06,17,04,45,7.40
2011,06,17,04,46,7.40
2011,06,17,04,47,7.40
2011,06,17,04,48,7.40
2011,06,17,04,49,7.40
2011,06,17,04,50,7.40
2011,06,17,04,51,7.30
2011,06,17,04,52,7.30
2011,06,17,04,53,7.30
2011,06,17,04,54,7.20
2011,06,17,04,55,7.20
2011,06,17,04,56,7.20
2011,06,17,04,57,7.20
2011,06,17,04,58,7.20
2011,06,17,04,59,7.20
2011,06,17,05,00,7.20
2011,06,17,05,01,7.20
2011,06,17,05,02,7.20
2011,06,17,05,03,7.20
2011,06,17,05,04,7.20
2011,06,17,05,05,7.20
2011,06,17,05,06,7.20
2011,06,17,05,07,7.20
2011,06,17,05,08,7.20
2011,06,17,05,09,7.20
2011,06,17,05,10,7.20
2011,06,17,05,11,7.20
2011,06,17,05,12,7.20
2011,06,17,05,13,7.20
2011,06,17,05,14,7.20
2011,06,17,05,15,7.20
2011,06,17,05,16,7.20
2011,06,17,05,17,7.20
2011,06,17,05,18,7.20
2011,06,17,05,19,7.20
2011,06,17,05,20,7.20
2011,06,17,05,21,7.20
2011,06,17,05,22,7.20
2011,06,17,05,23,7.20
2011,06,17,05,24,7.10
2011,06,17,05,25,7.10
2011,06,17,05,26,7.10
2011,06,17,05,27,7.10
2011,06,17,05,28,7.10
2011,06,17,05,29,7.10
2011,06,17,05,30,7.10
2011,06,17,05,31,7.10
2011,06,17,05,32,7.10
2011,06,17,05,33,7.10
2011,06,17,05,34,7.10
2011,06,17,05,35,7.10
2011,06,17,05,36,7.10
2011,06,17,05,37,7.10
2011,06,17,05,38,7.10
2011,06,17,05,39,7.10
2011,06,17,05,40,7.10
2011,06,17,05,41,7.10
2011,06,17,05,42,7.10
2011,06,17,05,43,7.10
2011,06,17,05,44,7.10
2011,06,17,05,45,7.10
2011,06,17,05,46,7.10
2011,06,17,05,47,7.10
2011,06,17,05,48,7.00
2011,06,17,05,49,7.00
2011,06,17,05,50,7.00
2011,06,17,05,51,7.00
2011,06,17,05,52,7.00
2011,06,17,05,53,7.00
2011,06,17,05,54,7.00
2011,06,17,05,55,7.00
2011,06,17,05,56,7.00
2011,06,17,05,57,7.00
2011,06,17,05,58,7.00
2011,06,17,05,59,7.00
2011,06,17,06,00,6.90
2011,06,17,06,01,6.90
2011,06,17,06,02,6.90
2011,06,17,06,03,6.90
2011,06,17,06,04,6.90
2011,06,17,06,05,6.90
2011,06,17,06,06,7.00
2011,06,17,06,07,7.00
2011,06,17,06,08,7.00
2011,06,17,06,09,7.00
2011,06,17,06,10,7.00
2011,06,17,06,11,7.10
2011,06,17,06,12,7.10
2011,06,17,06,13,7.10
2011,06,17,06,14,7.10
2011,06,17,06,15,7.10
2011,06,17,06,16,7.10
2011,06,17,06,17,7.10
2011,06,17,06,18,7.10
2011,06,17,06,19,7.10
2011,06,17,06,20,7.10
2011,06,17,06,21,7.20
2011,06,17,06,22,7.20
2011,06,17,06,23,7.20
2011,06,17,06,24,7.20
2011,06,17,06,25,7.20
2011,06,17,06,26,7.20
2011,06,17,06,27,7.20
2011,06,17,06,28,7.20
2011,06,17,06,29,7.20
2011,06,17,06,30,7.20
2011,06,17,06,31,7.20
2011,06,17,06,32,7.20
2011,06,17,06,33,7.20
2011,06,17,06,34,7.20
2011,06,17,06,35,7.20
2011,06,17,06,36,7.30
2011,06,17,06,37,7.30
2011,06,17,06,38,7.30
2011,06,17,06,39,7.30
2011,06,17,06,40,7.40
2011,06,17,06,41,7.40
2011,06,17,06,42,7.40
2011,06,17,06,43,7.50
2011,06,17,06,44,7.50
2011,06,17,06,45,7.60
2011,06,17,06,46,7.60
2011,06,17,06,47,7.70
2011,06,17,06,48,7.70
2011,06,17,06,49,7.80
2011,06,17,06,50,7.90
2011,06,17,06,51,7.90
2011,06,17,06,52,8.00
2011,06,17,06,53,8.10
2011,06,17,06,54,8.20
2011,06,17,06,55,8.30
2011,06,17,06,56,8.50
2011,06,17,06,57,8.60
2011,06,17,06,58,8.70
2011,06,17,06,59,8.80
2011,06,17,07,00,9.00
2011,06,17,07,01,9.10
2011,06,17,07,02,9.20
2011,06,17,07,03,9.40
2011,06,17,07,04,9.50
2011,06,17,07,05,9.60
2011,06,17,07,06,9.70
2011,06,17,07,07,9.90
2011,06,17,07,08,10.00
2011,06,17,07,09,10.10
2011,06,17,07,10,10.20
2011,06,17,07,11,10.30
2011,06,17,07,12,10.40
2011,06,17,07,13,10.40
2011,06,17,07,14,10.50
2011,06,17,07,15,10.50
2011,06,17,07,16,10.60
2011,06,17,07,17,10.70
2011,06,17,07,18,10.70
2011,06,17,07,19,10.70
2011,06,17,07,20,10.80
2011,06,17,07,21,10.80
2011,06,17,07,22,10.80
2011,06,17,07,23,10.90
2011,06,17,07,24,10.90
2011,06,17,07,25,10.90
2011,06,17,07,26,10.90
2011,06,17,07,27,11.00
2011,06,17,07,28,11.10
2011,06,17,07,29,11.10
2011,06,17,07,30,11.10
2011,06,17,07,31,11.20
2011,06,17,07,32,11.20
2011,06,17,07,33,11.20
2011,06,17,07,34,11.30
2011,06,17,07,35,11.30
2011,06,17,07,36,11.30
2011,06,17,07,37,11.40
2011,06,17,07,38,11.40
2011,06,17,07,39,11.50
2011,06,17,07,40,11.50
2011,06,17,07,41,11.60
2011,06,17,07,42,11.60
2011,06,17,07,43,11.70
2011,06,17,07,44,11.70
2011,06,17,07,45,11.70
2011,06,17,07,46,11.70
2011,06,17,07,47,11.70
2011,06,17,07,48,11.80
2011,06,17,07,49,11.80
2011,06,17,07,50,11.80
2011,06,17,07,51,11.80
2011,06,17,07,52,11.80
2011,06,17,07,53,11.80
2011,06,17,07,54,11.80
2011,06,17,07,55,11.90
2011,06,17,07,56,11.90
2011,06,17,07,57,11.90
2011,06,17,07,58,12.00
2011,06,17,07,59,12.00
2011,06,17,08,00,12.00
2011,06,17,08,01,12.00
2011,06,17,08,02,12.00
2011,06,17,08,03,12.00
2011,06,17,08,04,12.00
2011,06,17,08,05,12.10
2011,06,17,08,06,12.10
2011,06,17,08,07,12.10
2011,06,17,08,08,12.10
2011,06,17,08,09,12.20
2011,06,17,08,10,12.20
2011,06,17,08,11,12.20
2011,06,17,08,12,12.30
2011,06,17,08,13,12.30
2011,06,17,08,14,12.40
2011,06,17,08,15,12.40
2011,06,17,08,16,12.50
2011,06,17,08,17,12.50
2011,06,17,08,18,12.60
2011,06,17,08,19,12.60
2011,06,17,08,20,12.70
2011,06,17,08,21,12.70
2011,06,17,08,22,12.70
2011,06,17,08,23,12.80
2011,06,17,08,24,12.70
2011,06,17,08,25,12.70
2011,06,17,08,26,12.70
2011,06,17,08,27,12.70
2011,06,17,08,28,12.70
2011,06,17,08,29,12.70
2011,06,17,08,30,12.70
2011,06,17,08,31,12.70
2011,06,17,08,32,12.70
2011,06,17,08,33,12.70
2011,06,17,08,34,12.80
2011,06,17,08,35,12.80
2011,06,17,08,36,12.90
2011,06,17,08,37,12.90
2011,06,17,08,38,12.80
2011,06,17,08,39,12.80
2011,06,17,08,40,12.80
2011,06,17,08,41,12.80
2011,06,17,08,42,12.80
2011,06,17,08,43,12.80
2011,06,17,08,44,12.90
2011,06,17,08,45,12.90
2011,06,17,08,46,12.90
2011,06,17,08,47,12.90
2011,06,17,08,48,12.90
2011,06,17,08,49,12.90
2011,06,17,08,50,12.90
2011,06,17,08,51,12.90
2011,06,17,08,52,12.90
2011,06,17,08,53,13.00
2011,06,17,08,54,13.00
2011,06,17,08,55,13.10
2011,06,17,08,56,13.10
2011,06,17,08,57,13.20
2011,06,17,08,58,13.20
2011,06,17,08,59,13.30
2011,06,17,09,00,13.30
2011,06,17,09,01,13.30
2011,06,17,09,02,13.30
2011,06,17,09,03,13.30
2011,06,17,09,04,13.40
2011,06,17,09,05,13.40
2011,06,17,09,06,13.40
2011,06,17,09,07,13.50
2011,06,17,09,08,13.50
2011,06,17,09,09,13.50
2011,06,17,09,10,13.60
2011,06,17,09,11,13.60
2011,06,17,09,12,13.70
2011,06,17,09,13,13.70
2011,06,17,09,14,13.70
2011,06,17,09,15,13.70
2011,06,17,09,16,13.70
2011,06,17,09,17,13.80
2011,06,17,09,18,13.80
2011,06,17,09,19,13.80
2011,06,17,09,20,13.80
2011,06,17,09,21,13.90
2011,06,17,09,22,14.00
2011,06,17,09,23,14.00
2011,06,17,09,24,14.00
2011,06,17,09,25,14.10
2011,06,17,09,26,14.00
2011,06,17,09,27,14.00
2011,06,17,09,28,13.90
2011,06,17,09,29,13.90
2011,06,17,09,30,14.00
2011,06,17,09,31,13.90
2011,06,17,09,32,13.90
2011,06,17,09,33,13.90
2011,06,17,09,34,13.90
2011,06,17,09,35,14.00
2011,06,17,09,36,14.00
2011,06,17,09,37,14.00
2011,06,17,09,38,14.00
2011,06,17,09,39,14.00
2011,06,17,09,40,14.10
2011,06,17,09,41,14.10
2011,06,17,09,42,14.10
2011,06,17,09,43,14.10
2011,06,17,09,44,14.20
2011,06,17,09,45,14.20
2011,06,17,09,46,14.20
2011,06,17,09,47,14.20
2011,06,17,09,48,14.20
2011,06,17,09,49,14.20
2011,06,17,09,50,14.30
2011,06,17,09,51,14.30
2011,06,17,09,52,14.30
2011,06,17,09,53,14.30
2011,06,17,09,54,14.30
2011,06,17,09,55,14.20
2011,06,17,09,56,14.20
2011,06,17,09,57,14.10
2011,06,17,09,58,14.10
2011,06,17,09,59,14.10
2011,06,17,10,00,14.10
2011,06,17,10,01,14.20
2011,06,17,10,02,14.20
2011,06,17,10,03,14.30
2011,06,17,10,04,14.30
2011,06,17,10,05,14.30
2011,06,17,10,06,14.30
2011,06,17,10,07,14.30
2011,06,17,10,08,14.30
2011,06,17,10,09,14.30
2011,06,17,10,10,14.30
2011,06,17,10,11,14.40
2011,06,17,10,12,14.40
2011,06,17,10,13,14.40
2011,06,17,10,14,14.40
2011,06,17,10,15,14.40
2011,06,17,10,16,14.40
2011,06,17,10,17,14.40
2011,06,17,10,18,14.40
2011,06,17,10,19,14.40
2011,06,17,10,20,14.40
2011,06,17,10,21,14.50
2011,06,17,10,22,14.50
2011,06,17,10,23,14.50
2011,06,17,10,24,14.50
2011,06,17,10,25,14.50
2011,06,17,10,26,14.50
2011,06,17,10,27,14.60
2011,06,17,10,28,14.60
2011,06,17,10,29,14.60
2011,06,17,10,30,14.60
2011,06,17,10,31,14.70
2011,06,17,10,32,14.70
2011,06,17,10,33,14.70
2011,06,17,10,34,14.70
2011,06,17,10,35,14.60
2011,06,17,10,36,14.70
2011,06,17,10,37,14.70
2011,06,17,10,38,14.70
2011,06,17,10,39,14.70
2011,06,17,10,40,14.70
2011,06,17,10,41,14.80
2011,06,17,10,42,14.90
2011,06,17,10,43,15.00
2011,06,17,10,44,15.00
2011,06,17,10,45,15.00
2011,06,17,10,46,15.00
2011,06,17,10,47,15.00
2011,06,17,10,48,15.00
2011,06,17,10,49,15.00
2011,06,17,10,50,15.00
2011,06,17,10,51,15.00
2011,06,17,10,52,15.10
2011,06,17,10,53,15.20
2011,06,17,10,54,15.30
2011,06,17,10,55,15.30
2011,06,17,10,56,15.40
2011,06,17,10,57,15.30
2011,06,17,10,58,15.30
2011,06,17,10,59,15.20
2011,06,17,11,00,15.20
2011,06,17,11,01,15.30
2011,06,17,11,02,15.30
2011,06,17,11,03,15.30
2011,06,17,11,04,15.40
2011,06,17,11,05,15.30
2011,06,17,11,06,15.30
2011,06,17,11,07,15.40
2011,06,17,11,08,15.40
2011,06,17,11,09,15.40
2011,06,17,11,10,15.40
2011,06,17,11,11,15.40
2011,06,17,11,12,15.40
2011,06,17,11,13,15.30
2011,06,17,11,14,15.40
2011,06,17,11,15,15.40
2011,06,17,11,16,15.40
2011,06,17,11,17,15.40
2011,06,17,11,18,15.40
2011,06,17,11,19,15.40
2011,06,17,11,20,15.40
2011,06,17,11,21,15.50
2011,06,17,11,22,15.50
2011,06,17,11,23,15.60
2011,06,17,11,24,15.60
2011,06,17,11,25,15.70
2011,06,17,11,26,15.70
2011,06,17,11,27,15.80
2011,06,17,11,28,15.90
2011,06,17,11,29,15.90
2011,06,17,11,30,16.00
2011,06,17,11,31,16.10
2011,06,17,11,32,16.10
2011,06,17,11,33,16.20
2011,06,17,11,34,16.20
2011,06,17,11,35,16.30
2011,06,17,11,36,16.30
2011,06,17,11,37,16.30
2011,06,17,11,38,16.30
2011,06,17,11,39,16.30
2011,06,17,11,40,16.20
2011,06,17,11,41,16.20
2011,06,17,11,42,16.10
2011,06,17,11,43,16.00
2011,06,17,11,44,16.00
2011,06,17,11,45,15.90
2011,06,17,11,46,15.80
2011,06,17,11,47,15.70
2011,06,17,11,48,15.70
2011,06,17,11,49,15.70
2011,06,17,11,50,15.80
2011,06,17,11,51,15.80
2011,06,17,11,52,15.90
2011,06,17,11,53,16.00
2011,06,17,11,54,16.10
2011,06,17,11,55,16.20
2011,06,17,11,56,16.30
2011,06,17,11,57,16.30
2011,06,17,11,58,16.30
2011,06,17,11,59,16.30
2011,06,17,12,00,16.30
2011,06,17,12,01,16.30
2011,06,17,12,02,16.30
2011,06,17,12,03,16.20
2011,06,17,12,04,16.20
2011,06,17,12,05,16.20
2011,06,17,12,06,16.20
2011,06,17,12,07,16.20
2011,06,17,12,08,16.20
2011,06,17,12,09,16.30
2011,06,17,12,10,16.30
2011,06,17,12,11,16.40
2011,06,17,12,12,16.50
2011,06,17,12,13,16.60
2011,06,17,12,14,16.60
2011,06,17,12,15,16.60
2011,06,17,12,16,16.70
2011,06,17,12,17,16.60
2011,06,17,12,18,16.60
2011,06,17,12,19,16.60
2011,06,17,12,20,16.60
2011,06,17,12,21,16.60
2011,06,17,12,22,16.70
2011,06,17,12,23,16.70
2011,06,17,12,24,16.70
2011,06,17,12,25,16.70
2011,06,17,12,26,16.80
2011,06,17,12,27,16.80
2011,06,17,12,28,16.80
2011,06,17,12,29,16.80
2011,06,17,12,30,16.70
2011,06,17,12,31,16.80
2011,06,17,12,32,16.80
2011,06,17,12,33,16.80
2011,06,17,12,34,16.90
2011,06,17,12,35,16.90
2011,06,17,12,36,17.00
2011,06,17,12,37,17.10
2011,06,17,12,38,17.10
2011,06,17,12,39,17.10
2011,06,17,12,40,17.10
2011,06,17,12,41,17.20
2011,06,17,12,42,17.20
2011,06,17,12,43,17.20
2011,06,17,12,44,17.20
2011,06,17,12,45,17.20
2011,06,17,12,46,17.20
2011,06,17,12,47,17.20
2011,06,17,12,48,17.30
2011,06,17,12,49,17.30
2011,06,17,12,50,17.40
2011,06,17,12,51,17.40
2011,06,17,12,52,17.40
2011,06,17,12,53,17.50
2011,06,17,12,54,17.60
2011,06,17,12,55,17.60
2011,06,17,12,56,17.60
2011,06,17,12,57,17.60
2011,06,17,12,58,17.60
2011,06,17,12,59,17.70
2011,06,17,13,00,17.70
2011,06,17,13,01,17.70
2011,06,17,13,02,17.70
2011,06,17,13,03,17.70
2011,06,17,13,04,17.70
2011,06,17,13,05,17.80
2011,06,17,13,06,17.80
2011,06,17,13,07,17.80
2011,06,17,13,08,17.80
2011,06,17,13,09,17.80
2011,06,17,13,10,17.90
2011,06,17,13,11,17.90
2011,06,17,13,12,17.80
2011,06,17,13,13,17.80
2011,06,17,13,14,17.80
2011,06,17,13,15,17.80
2011,06,17,13,16,17.80
2011,06,17,13,17,17.90
2011,06,17,13,18,17.90
2011,06,17,13,19,17.90
2011,06,17,13,20,17.90
2011,06,17,13,21,17.90
2011,06,17,13,22,17.90
2011,06,17,13,23,17.90
2011,06,17,13,24,17.90
2011,06,17,13,25,18.00
2011,06,17,13,26,18.00
2011,06,17,13,27,18.10
2011,06,17,13,28,18.20
2011,06,17,13,29,18.20
2011,06,17,13,30,18.20
2011,06,17,13,31,18.20
2011,06,17,13,32,18.20
2011,06,17,13,33,18.10
2011,06,17,13,34,18.00
2011,06,17,13,35,17.90
2011,06,17,13,36,17.90
2011,06,17,13,37,18.00
2011,06,17,13,38,18.10
2011,06,17,13,39,18.10
2011,06,17,13,40,18.10
2011,06,17,13,41,18.20
2011,06,17,13,42,18.20
2011,06,17,13,43,18.30
2011,06,17,13,44,18.40
2011,06,17,13,45,18.40
2011,06,17,13,46,18.30
2011,06,17,13,47,18.20
2011,06,17,13,48,18.10
2011,06,17,13,49,18.00
2011,06,17,13,50,18.00
2011,06,17,13,51,17.90
2011,06,17,13,52,17.90
2011,06,17,13,53,17.80
2011,06,17,13,54,17.80
2011,06,17,13,55,17.80
2011,06,17,13,56,17.90
2011,06,17,13,57,18.00
2011,06,17,13,58,18.10
2011,06,17,13,59,18.10
2011,06,17,14,00,18.20
2011,06,17,14,01,18.30
2011,06,17,14,02,18.50
2011,06,17,14,03,18.60
2011,06,17,14,04,18.70
2011,06,17,14,05,18.80
2011,06,17,14,06,18.80
2011,06,17,14,07,18.80
2011,06,17,14,08,18.70
2011,06,17,14,09,18.70
2011,06,17,14,10,18.60
2011,06,17,14,11,18.50
2011,06,17,14,12,18.40
2011,06,17,14,13,18.30
2011,06,17,14,14,18.30
2011,06,17,14,15,18.40
2011,06,17,14,16,18.40
2011,06,17,14,17,18.30
2011,06,17,14,18,18.20
2011,06,17,14,19,18.10
2011,06,17,14,20,18.00
2011,06,17,14,21,18.00
2011,06,17,14,22,18.10
2011,06,17,14,23,18.10
2011,06,17,14,24,18.10
2011,06,17,14,25,18.20
2011,06,17,14,26,18.30
2011,06,17,14,27,18.30
2011,06,17,14,28,18.30
2011,06,17,14,29,18.40
2011,06,17,14,30,18.40
2011,06,17,14,31,18.40
2011,06,17,14,32,18.40
2011,06,17,14,33,18.40
2011,06,17,14,34,18.30
2011,06,17,14,35,18.20
2011,06,17,14,36,18.20
2011,06,17,14,37,18.20
2011,06,17,14,38,18.10
2011,06,17,14,39,18.10
2011,06,17,14,40,18.00
2011,06,17,14,41,18.00
2011,06,17,14,42,18.00
2011,06,17,14,43,18.10
2011,06,17,14,44,18.10
2011,06,17,14,45,18.00
2011,06,17,14,46,18.00
2011,06,17,14,47,17.90
2011,06,17,14,48,17.80
2011,06,17,14,49,17.80
2011,06,17,14,50,17.80
2011,06,17,14,51,17.80
2011,06,17,14,52,17.70
2011,06,17,14,53,17.60
2011,06,17,14,54,17.40
2011,06,17,14,55,17.40
2011,06,17,14,56,17.30
2011,06,17,14,57,17.20
2011,06,17,14,58,17.10
2011,06,17,14,59,17.10
2011,06,17,15,00,17.10
2011,06,17,15,01,17.10
2011,06,17,15,02,17.10
2011,06,17,15,03,17.00
2011,06,17,15,04,17.00
2011,06,17,15,05,17.00
2011,06,17,15,06,17.10
2011,06,17,15,07,17.20
2011,06,17,15,08,17.20
2011,06,17,15,09,17.30
2011,06,17,15,10,17.30
2011,06,17,15,11,17.30
2011,06,17,15,12,17.30
2011,06,17,15,13,17.30
2011,06,17,15,14,17.40
2011,06,17,15,15,17.40
2011,06,17,15,16,17.50
2011,06,17,15,17,17.60
2011,06,17,15,18,17.60
2011,06,17,15,19,17.70
2011,06,17,15,20,17.60
2011,06,17,15,21,17.60
2011,06,17,15,22,17.60
2011,06,17,15,23,17.70
2011,06,17,15,24,17.70
2011,06,17,15,25,17.80
2011,06,17,15,26,17.80
2011,06,17,15,27,17.90
2011,06,17,15,28,17.90
2011,06,17,15,29,17.90
2011,06,17,15,30,17.90
2011,06,17,15,31,18.00
2011,06,17,15,32,18.10
2011,06,17,15,33,18.10
2011,06,17,15,34,18.10
2011,06,17,15,35,18.10
2011,06,17,15,36,18.10
2011,06,17,15,37,18.20
2011,06,17,15,38,18.20
2011,06,17,15,39,18.20
2011,06,17,15,40,18.10
2011,06,17,15,41,18.20
2011,06,17,15,42,18.20
2011,06,17,15,43,18.20
2011,06,17,15,44,18.30
2011,06,17,15,45,18.40
2011,06,17,15,46,18.50
2011,06,17,15,47,18.60
2011,06,17,15,48,18.70
2011,06,17,15,49,18.80
2011,06,17,15,50,18.90
2011,06,17,15,51,18.90
2011,06,17,15,52,18.90
2011,06,17,15,53,18.90
2011,06,17,15,54,18.90
2011,06,17,15,55,18.90
2011,06,17,15,56,18.90
2011,06,17,15,57,18.90
2011,06,17,15,58,18.90
2011,06,17,15,59,19.00
2011,06,17,16,00,19.00
2011,06,17,16,01,19.00
2011,06,17,16,02,19.10
2011,06,17,16,03,19.10
2011,06,17,16,04,19.10
2011,06,17,16,05,19.20
2011,06,17,16,06,19.20
2011,06,17,16,07,19.30
2011,06,17,16,08,19.30
2011,06,17,16,09,19.30
2011,06,17,16,10,19.30
2011,06,17,16,11,19.30
2011,06,17,16,12,19.30
2011,06,17,16,13,19.20
2011,06,17,16,14,19.20
2011,06,17,16,15,19.20
2011,06,17,16,16,19.20
2011,06,17,16,17,19.10
2011,06,17,16,18,19.00
2011,06,17,16,19,18.90
2011,06,17,16,20,18.80
2011,06,17,16,21,18.80
2011,06,17,16,22,18.70
2011,06,17,16,23,18.60
2011,06,17,16,24,18.50
2011,06,17,16,25,18.50
2011,06,17,16,26,18.40
2011,06,17,16,27,18.40
2011,06,17,16,28,18.40
2011,06,17,16,29,18.30
2011,06,17,16,30,18.30
2011,06,17,16,31,18.30
2011,06,17,16,32,18.30
2011,06,17,16,33,18.30
2011,06,17,16,34,18.40
2011,06,17,16,35,18.40
2011,06,17,16,36,18.50
2011,06,17,16,37,18.50
2011,06,17,16,38,18.60
2011,06,17,16,39,18.60
2011,06,17,16,40,18.70
2011,06,17,16,41,18.70
2011,06,17,16,42,18.80
2011,06,17,16,43,18.90
2011,06,17,16,44,18.90
2011,06,17,16,45,18.90
2011,06,17,16,46,18.90
2011,06,17,16,47,18.90
2011,06,17,16,48,18.90
2011,06,17,16,49,18.80
2011,06,17,16,50,18.80
2011,06,17,16,51,18.70
2011,06,17,16,52,18.60
2011,06,17,16,53,18.50
2011,06,17,16,54,18.40
2011,06,17,16,55,18.40
2011,06,17,16,56,18.30
2011,06,17,16,57,18.30
2011,06,17,16,58,18.20
2011,06,17,16,59,18.20
2011,06,17,17,00,18.10
2011,06,17,17,01,18.10
2011,06,17,17,02,18.10
2011,06,17,17,03,18.10
2011,06,17,17,04,18.10
2011,06,17,17,05,18.20
2011,06,17,17,06,18.20
2011,06,17,17,07,18.20
2011,06,17,17,08,18.20
2011,06,17,17,09,18.20
2011,06,17,17,10,18.20
2011,06,17,17,11,18.20
2011,06,17,17,12,18.20
2011,06,17,17,13,18.20
2011,06,17,17,14,18.20
2011,06,17,17,15,18.20
2011,06,17,17,16,18.30
2011,06,17,17,17,18.30
2011,06,17,17,18,18.30
2011,06,17,17,19,18.20
2011,06,17,17,20,18.20
2011,06,17,17,21,18.20
2011,06,17,17,22,18.30
2011,06,17,17,23,18.30
2011,06,17,17,24,18.30
2011,06,17,17,25,18.30
2011,06,17,17,26,18.30
2011,06,17,17,27,18.30
2011,06,17,17,28,18.30
2011,06,17,17,29,18.30
2011,06,17,17,30,18.30
2011,06,17,17,31,18.30
2011,06,17,17,32,18.30
2011,06,17,17,33,18.30
2011,06,17,17,34,18.30